Meath Environmental Platform

Observations for Trim Patrick St

Time AQI Temp °C Hum % Pres Pa CO μg/m³ H₂S μg/m³ NO μg/m³ NO₂ μg/m³ O₃ μg/m³ SO₂ μg/m³ PM1 μg/m³ PM2.5 μg/m³ PM10 μg/m³
Thursday 27 August 2026
15:17 3 21.6 74 38,460 0 0 2.46 12.56 43.65 2.76 16.57 23.38 25.72
15:16 3 21.6 74 38,460 0 0 2.07 13.16 43.08 2.24 15.71 23.42 25.76
15:15 3 21.5 74 38,460 0 0 2.63 12.15 45.2 2.19 13.14 19.14 21.06
15:14 3 21.5 74 38,460 0 0 1.97 7.62 49.9 2.92 14 19.87 21.85
15:12 3 21.5 74 38,460 0 0 1.75 12.03 46.01 2.67 14.86 19.14 21.06
15:11 3 21.4 74 38,460 0 0 1.85 10.22 46.1 1.67 17.43 23.38 25.72
15:09 3 21.4 74 38,460 0 0 1.59 10.1 44.9 2.15 14.86 20.56 22.61
15:05 3 21.4 75 38,460 0 0 2.41 8.1 47.86 1.85 14.86 21.22 22.11
15:04 3 21.4 75 38,460 0 0 2.37 8.74 48.38 1.84 16.57 21.18 23.3
15:03 3 21.4 74 38,460 0 0 1.86 6.8 52.28 2.74 13.14 20.56 22.61
15:02 3 21.3 74 38,460 0 0 2.39 8.52 46.67 1.51 15.71 22.66 24.93
15:01 3 21.3 74 38,460 0 0 1.65 6.95 51.5 1.93 16.57 21.95 24.14
15:00 3 21.3 75 38,460 0 0 2.33 7.58 49.11 2.24 13.14 18.38 20.22
14:59 3 21.3 75 38,460 0 0 2.11 5.92 53.25 1.25 14.86 22.65 24.91
14:58 3 21.3 74 38,460 0 0 2.54 7.75 48.62 1.81 12.29 19.81 21.79
14:57 3 21.4 76 38,460 0 0 2.5 10.59 42.36 1.77 15.71 21.8 23.98
14:56 3 21.3 74 38,460 0 0 3.24 7.93 48.48 1.98 16.57 22.66 24.93
14:55 3 21.4 74 38,460 0 0 4.06 5.95 50.13 1.41 16.57 20.56 22.61
14:54 3 21.4 76 38,460 0.03 0 4.67 13.32 38.03 2.24 15.71 21.83 24.02
14:53 3 21.4 74 38,460 0.09 0 5.51 12.65 29.16 2.46 16.57 21.96 24.15